| time (UTC) | temp F | wind direction | speed knots | gust knots | rain 1hr in | rain 24hr in | rain mn in | humidity % | barometer mb |
| 20260904042534 | 71 | 168 | 6.1 | 7.0 | 0.02 | 0.22 | 0.00 | 90 | 1014.0 |
| 20260904042035 | 71 | 180 | 4.3 | 6.1 | 0.03 | 0.22 | 0.00 | 89 | 1014.2 |
| 20260904041537 | 71 | 161 | 2.6 | 4.3 | 0.03 | 0.22 | 0.00 | 90 | 1014.1 |
| 20260904041035 | 71 | 138 | 0.0 | 4.3 | 0.03 | 0.22 | 0.00 | 90 | 1014.1 |
| 20260904040557 | 71 | 138 | 0.9 | 7.8 | 0.04 | 0.22 | 0.00 | 89 | 1014.2 |
| 20260904040034 | 71 | 144 | 4.3 | 7.8 | 0.04 | 0.22 | 0.00 | 89 | 1014.0 |
| 20260904035557 | 71 | 174 | 3.5 | 5.2 | 0.05 | 0.22 | 0.22 | 88 | 1014.3 |
| 20260904035036 | 71 | 144 | 2.6 | 3.5 | 0.05 | 0.22 | 0.22 | 88 | 1014.5 |
| 20260904034532 | 72 | 144 | 0.9 | 7.0 | 0.06 | 0.22 | 0.22 | 88 | 1014.6 |
| 20260904034030 | 72 | 138 | 4.3 | 7.8 | 0.06 | 0.22 | 0.22 | 88 | 1014.7 |
| 20260904033551 | 72 | 132 | 5.2 | 7.8 | 0.07 | 0.22 | 0.22 | 87 | 1014.9 |
| 20260904033030 | 72 | 128 | 5.2 | 7.8 | 0.07 | 0.21 | 0.21 | 86 | 1014.9 |
| 20260904032526 | 72 | 196 | 0.9 | 5.2 | 0.07 | 0.20 | 0.20 | 87 | 1015.1 |
| 20260904032051 | 72 | 196 | 0.9 | 5.2 | 0.07 | 0.19 | 0.19 | 86 | 1015.3 |
| 20260904031527 | 72 | 185 | 1.7 | 5.2 | 0.07 | 0.19 | 0.19 | 86 | 1015.8 |
| 20260904031032 | 72 | 185 | 4.3 | 5.2 | 0.07 | 0.19 | 0.19 | 87 | 1015.9 |
| 20260904030529 | 72 | 255 | 0.9 | 7.0 | 0.06 | 0.18 | 0.18 | 86 | 1016.1 |
| 20260904030029 | 73 | 255 | 0.0 | 7.0 | 0.07 | 0.18 | 0.18 | 85 | 1016.2 |
| 20260904025551 | 73 | 264 | 0.9 | 7.8 | 0.06 | 0.17 | 0.17 | 85 | 1016.3 |
| 20260904025029 | 73 | 278 | 3.5 | 7.8 | 0.06 | 0.17 | 0.17 | 85 | 1016.3 |
| 20260904024547 | 74 | 269 | 0.9 | 4.3 | 0.05 | 0.16 | 0.16 | 86 | 1016.2 |
| 20260904024025 | 74 | 247 | 0.9 | 4.3 | 0.05 | 0.16 | 0.16 | 87 | 1016.2 |
| 20260904023542 | 74 | 151 | 0.9 | 4.3 | 0.04 | 0.15 | 0.15 | 87 | 1016.1 |
| 20260904023042 | 74 | 187 | 1.7 | 5.2 | 0.03 | 0.14 | 0.14 | 87 | 1016.2 |
| 20260904022539 | 74 | 187 | 3.5 | 5.2 | 0.02 | 0.13 | 0.13 | 85 | 1016.1 |
| 20260904022038 | 75 | 215 | 1.7 | 6.1 | 0.02 | 0.12 | 0.12 | 85 | 1016.0 |
| 20260904021535 | 75 | 184 | 2.6 | 4.3 | 0.02 | 0.12 | 0.12 | 84 | 1015.7 |
| 20260904021033 | 75 | 181 | 2.6 | 7.0 | 0.02 | 0.12 | 0.12 | 83 | 1015.7 |
| 20260904020532 | 75 | 184 | 1.7 | 8.7 | 0.02 | 0.12 | 0.12 | 82 | 1015.2 |
| 20260904020031 | 75 | 175 | 5.2 | 11.3 | 0.01 | 0.11 | 0.11 | 81 | 1014.6 |
| 20260904015529 | 76 | 152 | 9.6 | 11.3 | 0.01 | 0.11 | 0.11 | 81 | 1014.7 |
| 20260904015031 | 76 | 154 | 5.2 | 9.6 | 0.01 | 0.11 | 0.11 | 80 | 1014.3 |
| 20260904014527 | 76 | 143 | 2.6 | 14.8 | 0.01 | 0.11 | 0.11 | 77 | 1014.0 |
| 20260904014051 | 76 | 222 | 4.3 | 17.4 | 0.01 | 0.11 | 0.11 | 77 | 1014.3 |
| 20260904013528 | 77 | 299 | 8.7 | 17.4 | 0.01 | 0.11 | 0.11 | 77 | 1014.0 |
| 20260904013028 | 78 | 338 | 7.0 | 24.3 | 0.01 | 0.11 | 0.11 | 77 | 1013.8 |
| 20260904012525 | 79 | 274 | 12.2 | 30.4 | 0.01 | 0.11 | 0.11 | 76 | 1014.8 |
| 20260904012044 | 80 | 272 | 13.0 | 30.4 | 0.00 | 0.10 | 0.10 | 82 | 1015.1 |
| 20260904011543 | 81 | 148 | 0.0 | 1.7 | 0.00 | 0.10 | 0.10 | 85 | 1014.3 |
| 20260904011041 | 81 | 148 | 0.0 | 0.0 | 0.00 | 0.10 | 0.10 | 84 | 1014.1 |
| 20260904010538 | 81 | 148 | 0.0 | 0.9 | 0.00 | 0.10 | 0.10 | 84 | 1013.9 |
| 20260904010037 | 81 | 148 | 0.0 | 1.7 | 0.00 | 0.10 | 0.10 | 84 | 1013.7 |
| 20260904005535 | 81 | 148 | 0.0 | 4.3 | 0.00 | 0.10 | 0.10 | 82 | 1013.8 |
| 20260904005033 | 81 | 148 | 1.7 | 4.3 | 0.00 | 0.10 | 0.10 | 82 | 1013.8 |
| 20260904004529 | 81 | 131 | 1.7 | 2.6 | 0.00 | 0.10 | 0.10 | 81 | 1013.8 |
| 20260904004052 | 82 | 131 | 1.7 | 2.6 | 0.00 | 0.10 | 0.10 | 81 | 1013.7 |
| 20260904003529 | 82 | 131 | 0.9 | 2.6 | 0.00 | 0.10 | 0.10 | 81 | 1013.7 |
| 20260904003054 | 82 | 131 | 0.0 | 4.3 | 0.00 | 0.10 | 0.10 | 81 | 1013.8 |
| 20260904002530 | 82 | 131 | 2.6 | 4.3 | 0.00 | 0.10 | 0.10 | 80 | 1013.7 |
| 20260904002033 | 82 | 141 | 2.6 | 4.3 | 0.00 | 0.10 | 0.10 | 80 | 1013.7 |
| 20260904001531 | 82 | 175 | 1.7 | 3.5 | 0.00 | 0.10 | 0.10 | 80 | 1013.7 |
| 20260904001030 | 82 | 175 | 1.7 | 3.5 | 0.00 | 0.10 | 0.10 | 79 | 1013.9 |
| 20260904000552 | 83 | 175 | 1.7 | 3.5 | 0.00 | 0.10 | 0.10 | 79 | 1013.9 |
| 20260904000031 | 83 | 175 | 1.7 | 3.5 | 0.00 | 0.10 | 0.10 | 79 | 1014.2 |
| 20260903235528 | 83 | 175 | 2.6 | 3.5 | 0.00 | 0.10 | 0.10 | 79 | 1014.2 |
| 20260903235027 | 83 | 178 | 1.7 | 2.6 | 0.00 | 0.10 | 0.10 | 78 | 1014.1 |
| 20260903234524 | 83 | 178 | 1.7 | 2.6 | 0.00 | 0.10 | 0.10 | 78 | 1014.2 |
| 20260903234042 | 83 | 178 | 1.7 | 3.5 | 0.00 | 0.10 | 0.10 | 77 | 1014.3 |
| 20260903233540 | 83 | 178 | 2.6 | 3.5 | 0.00 | 0.10 | 0.10 | 77 | 1014.4 |
| 20260903233039 | 84 | 140 | 1.7 | 2.6 | 0.00 | 0.10 | 0.10 | 76 | 1014.3 |
| 20260903232601 | 84 | 140 | 1.7 | 2.6 | 0.00 | 0.10 | 0.10 | 76 | 1014.0 |
| 20260903232039 | 84 | 140 | 1.7 | 2.6 | 0.00 | 0.10 | 0.10 | 75 | 1013.9 |
| 20260903231536 | 84 | 140 | 0.0 | 4.3 | 0.00 | 0.10 | 0.10 | 75 | 1013.6 |
| 20260903231034 | 85 | 119 | 1.7 | 4.3 | 0.00 | 0.10 | 0.10 | 74 | 1013.3 |
| 20260903230531 | 85 | 128 | 2.6 | 5.2 | 0.00 | 0.10 | 0.10 | 74 | 1013.1 |
| 20260903230030 | 85 | 182 | 1.7 | 2.6 | 0.00 | 0.10 | 0.10 | 73 | 1013.2 |
| 20260903225532 | 85 | 182 | 1.7 | 2.6 | 0.00 | 0.10 | 0.10 | 73 | 1013.3 |
| 20260903225052 | 85 | 182 | 0.9 | 4.3 | 0.00 | 0.10 | 0.10 | 73 | 1013.4 |
| 20260903224528 | 86 | 182 | 1.7 | 4.3 | 0.00 | 0.10 | 0.10 | 72 | 1013.4 |
| 20260903224027 | 86 | 182 | 2.6 | 4.3 | 0.00 | 0.10 | 0.10 | 71 | 1013.4 |
| 20260903223524 | 86 | 182 | 2.6 | 5.2 | 0.00 | 0.10 | 0.10 | 71 | 1013.3 |
| 20260903223043 | 86 | 164 | 3.5 | 5.2 | 0.00 | 0.10 | 0.10 | 71 | 1013.3 |
| 20260903222540 | 86 | 167 | 3.5 | 6.1 | 0.00 | 0.10 | 0.10 | 70 | 1013.4 |
| 20260903222040 | 86 | 186 | 2.6 | 6.1 | 0.00 | 0.10 | 0.10 | 70 | 1013.4 |
| 20260903221535 | 87 | 178 | 4.3 | 7.8 | 0.00 | 0.10 | 0.10 | 69 | 1013.2 |
| 20260903221034 | 87 | 168 | 5.2 | 7.8 | 0.00 | 0.10 | 0.10 | 69 | 1013.2 |
| 20260903220531 | 87 | 183 | 3.5 | 7.0 | 0.00 | 0.10 | 0.10 | 69 | 1013.3 |
| 20260903220031 | 87 | 130 | 4.3 | 7.0 | 0.00 | 0.10 | 0.10 | 68 | 1013.3 |
| 20260903215531 | 87 | 132 | 5.2 | 7.0 | 0.00 | 0.10 | 0.10 | 68 | 1013.1 |
| 20260903215031 | 87 | 171 | 4.3 | 7.0 | 0.00 | 0.10 | 0.10 | 67 | 1013.2 |
| 20260903214529 | 88 | 161 | 5.2 | 7.8 | 0.00 | 0.10 | 0.10 | 67 | 1013.2 |
| 20260903214029 | 88 | 188 | 5.2 | 10.4 | 0.00 | 0.10 | 0.10 | 66 | 1013.2 |
| 20260903213552 | 88 | 195 | 7.8 | 10.4 | 0.00 | 0.10 | 0.10 | 65 | 1013.3 |
| 20260903213033 | 88 | 190 | 4.3 | 7.8 | 0.00 | 0.10 | 0.10 | 66 | 1013.2 |
| 20260903212532 | 88 | 150 | 6.1 | 7.8 | 0.00 | 0.10 | 0.10 | 66 | 1013.3 |
| 20260903212056 | 88 | 161 | 6.1 | 8.7 | 0.00 | 0.10 | 0.10 | 66 | 1013.3 |
| 20260903211534 | 88 | 138 | 5.2 | 8.7 | 0.00 | 0.10 | 0.10 | 65 | 1013.4 |
| 20260903211031 | 88 | 155 | 4.3 | 8.7 | 0.00 | 0.10 | 0.10 | 66 | 1013.2 |
| 20260903210530 | 88 | 168 | 5.2 | 9.6 | 0.00 | 0.10 | 0.10 | 67 | 1013.3 |
| 20260903210028 | 87 | 205 | 5.2 | 9.6 | 0.00 | 0.10 | 0.10 | 66 | 1013.4 |
| 20260903205526 | 87 | 168 | 7.0 | 9.6 | 0.00 | 0.10 | 0.10 | 67 | 1013.3 |
| 20260903205025 | 87 | 183 | 7.0 | 9.6 | 0.00 | 0.10 | 0.10 | 66 | 1013.3 |
| 20260903204543 | 87 | 189 | 6.1 | 11.3 | 0.00 | 0.10 | 0.10 | 66 | 1013.4 |
| 20260903204043 | 87 | 178 | 7.8 | 11.3 | 0.00 | 0.10 | 0.10 | 67 | 1013.5 |
| 20260903203541 | 88 | 200 | 8.7 | 11.3 | 0.00 | 0.10 | 0.10 | 65 | 1013.7 |
| 20260903203040 | 88 | 209 | 7.8 | 9.6 | 0.00 | 0.10 | 0.10 | 67 | 1013.5 |
| 20260903202539 | 88 | 174 | 6.1 | 13.0 | 0.00 | 0.10 | 0.10 | 66 | 1013.5 |
| 20260903202103 | 88 | 236 | 3.5 | 13.0 | 0.00 | 0.10 | 0.10 | 66 | 1013.5 |
| 20260903201540 | 87 | 180 | 7.8 | 12.2 | 0.00 | 0.10 | 0.10 | 66 | 1013.6 |
| 20260903201042 | 88 | 194 | 8.7 | 11.3 | 0.00 | 0.10 | 0.10 | 65 | 1013.9 |
| 20260903200541 | 87 | 168 | 9.6 | 13.0 | 0.00 | 0.10 | 0.10 | 65 | 1013.9 |
| 20260903200039 | 88 | 185 | 8.7 | 13.0 | 0.00 | 0.10 | 0.10 | 66 | 1013.9 |
| 20260903195535 | 88 | 160 | 6.1 | 9.6 | 0.00 | 0.10 | 0.10 | 65 | 1013.9 |
| 20260903195036 | 87 | 161 | 6.1 | 11.3 | 0.00 | 0.10 | 0.10 | 67 | 1013.9 |
| 20260903194531 | 87 | 217 | 7.8 | 11.3 | 0.00 | 0.10 | 0.10 | 64 | 1014.1 |
| 20260903194031 | 88 | 178 | 7.8 | 11.3 | 0.00 | 0.10 | 0.10 | 66 | 1014.1 |
| 20260903193553 | 87 | 153 | 6.1 | 8.7 | 0.00 | 0.10 | 0.10 | 66 | 1014.1 |
| 20260903193031 | 87 | 191 | 4.3 | 10.4 | 0.00 | 0.10 | 0.10 | 66 | 1014.3 |
| 20260903192529 | 86 | 219 | 5.2 | 10.4 | 0.00 | 0.10 | 0.10 | 65 | 1014.3 |
| 20260903192028 | 86 | 205 | 4.3 | 11.3 | 0.00 | 0.10 | 0.10 | 65 | 1014.4 |
| 20260903191526 | 86 | 210 | 5.2 | 11.3 | 0.00 | 0.10 | 0.10 | 68 | 1014.4 |
| 20260903191025 | 86 | 183 | 7.0 | 10.4 | 0.00 | 0.10 | 0.10 | 67 | 1014.7 |
| 20260903190543 | 85 | 186 | 4.3 | 9.6 | 0.00 | 0.10 | 0.10 | 68 | 1014.7 |
| 20260903190026 | 85 | 238 | 7.8 | 10.4 | 0.00 | 0.10 | 0.10 | 67 | 1014.8 |
| 20260903185544 | 85 | 209 | 2.6 | 7.8 | 0.00 | 0.10 | 0.10 | 67 | 1014.9 |
| 20260903185044 | 85 | 227 | 2.6 | 11.3 | 0.00 | 0.10 | 0.10 | 70 | 1015.0 |
| 20260903184541 | 85 | 191 | 8.7 | 11.3 | 0.00 | 0.10 | 0.10 | 69 | 1015.1 |
| 20260903184041 | 84 | 188 | 8.7 | 11.3 | 0.00 | 0.10 | 0.10 | 70 | 1015.1 |
| 20260903183537 | 84 | 232 | 7.0 | 13.9 | 0.00 | 0.10 | 0.10 | 72 | 1015.2 |
| 20260903183036 | 83 | 180 | 9.6 | 13.9 | 0.00 | 0.10 | 0.10 | 71 | 1015.3 |
| 20260903182532 | 83 | 190 | 7.8 | 12.2 | 0.00 | 0.10 | 0.10 | 72 | 1015.3 |
| 20260903182032 | 83 | 201 | 7.8 | 12.2 | 0.00 | 0.10 | 0.10 | 71 | 1015.4 |
| 20260903181529 | 83 | 213 | 7.8 | 13.9 | 0.00 | 0.10 | 0.10 | 71 | 1015.4 |
| 20260903181028 | 83 | 181 | 7.0 | 13.9 | 0.00 | 0.10 | 0.10 | 71 | 1015.4 |
| 20260903180526 | 83 | 153 | 6.1 | 13.0 | 0.00 | 0.10 | 0.10 | 73 | 1015.4 |
| 20260903180051 | 83 | 251 | 3.5 | 12.2 | 0.00 | 0.10 | 0.10 | 74 | 1015.5 |